This demonstration page uses our WeatherBlox Daily Observations layout. Learn more.

Left ArrowRight Arrow

34.02893, -84.19858

Hourly Observations for January 11, 2018

Temp ( °F °C ) Dew Point ( °F °C ) Humidity (%) Winds ( mph kmh ) Pressure ( in mb ) Visibility ( mi km ) Precip ( " mm )
12:39 am 00:39 Cloudy with Mist and Fog 54 12.2 53 11.7 97 97 VRB 6 9 30.15 1021 3 4 0.00 0.00
12:50 am 00:50 Cloudy with Mist and Fog 54 12 54 12 100 100 VRB 6 9 30.15 1021 4 6 0.00 0.00
12:53 am 00:53 Cloudy with Mist and Fog 54 12.2 53 11.7 97 97 VRB 5 7 30.14 1021 5 8 0.00 0.00
1:53 am 01:53 Cloudy with Mist and Fog 53 11.7 52 11.1 96 96 undefined N/A 30.11 1020 3 5 0.00 0.03
2:32 am 02:32 Cloudy with Mist and Fog 53 11.7 52 11.1 96 96 VRB 7 11 30.12 1020 3 4 0.00 0.00
2:41 am 02:41 Cloudy with Light Rain 52 11.1 51 10.6 97 97 VRB 7 11 30.12 1020 3 4 0.00 0.03
2:53 am 02:53 Cloudy with Light Rain 52 11.1 51 10.6 97 97 E 10 17 30.11 1020 3 4 0.01 0.25
3:01 am 03:01 Cloudy with Light Rain 52 11.1 51 10.6 97 97 ENE 6 9 30.12 1020 3 5 0.00 0.03
3:37 am 03:37 Cloudy with Mist and Fog 51 10.6 50 10 96 96 E 8 13 30.12 1020 3 5 0.00 0.03
3:53 am 03:53 Cloudy with Mist and Fog 51 10.6 50 10 96 96 E 9 15 30.10 1019 3 5 0.00 0.03
4:03 am 04:03 Cloudy with Mist and Fog 51 10.6 50 10 96 96 E 9 15 30.12 1020 3 4 0.00 0.00
4:20 am 04:20 Cloudy with Mist and Fog 50 10 50 10 100 100 ENE 10 17 30.09 1019 3 5 0.00 0.00
4:53 am 04:53 Cloudy with Mist and Fog 50 10 49 9.4 96 96 ENE 7 11 30.09 1019 3 5 0.00 0.00
5:13 am 05:13 Cloudy with Mist and Fog 50 10 49 9.4 96 96 ENE 8 13 30.09 1019 2 3 0.00 0.00
5:43 am 05:43 Cloudy with Mist and Fog 50 10 49 9.4 96 96 ENE 7 11 30.09 1019 3 5 0.00 0.00
5:53 am 05:53 Cloudy with Light Rain 50 10 49 9.4 96 96 VRB 7 11 30.09 1019 2 3 0.00 0.03
6:07 am 06:07 Cloudy with Mist and Fog 50 10 49 9.4 96 96 VRB 7 11 30.09 1019 3 5 0.00 0.03
6:16 am 06:16 Cloudy with Mist and Fog 50 10 49 9.4 96 96 VRB 3 6 30.09 1019 2 3 0.00 0.03
6:33 am 06:33 Cloudy with Light Rain 50 10 49 9.4 96 96 ENE 7 11 30.09 1019 2 3 0.01 0.25
6:41 am 06:41 Cloudy with Mist and Fog 50 10 49 9.4 96 96 ENE 7 11 30.09 1019 2 3 0.01 0.25
6:53 am 06:53 Cloudy with Mist and Fog 50 10 49 9.4 96 96 E 5 7 30.09 1019 2 3 0.01 0.25
7:53 am 07:53 Cloudy with Fog 51 10.6 50 10 96 96 E 5 7 30.11 1020 1 1 0.01 0.25
7:55 am 07:55 Cloudy with Fog 51 10.6 50 10 96 96 VRB 3 6 30.12 1020 1 1 0.00 0.00
8:53 am 08:53 Cloudy with Fog 51 10.6 50 10 96 96 VRB 5 7 30.12 1020 1 1 0.01 0.25
9:00 am 09:00 Cloudy with Mist and Fog 51 10.6 50 10 96 96 VRB 5 7 30.12 1020 2 2 0.00 0.00
9:15 am 09:15 Cloudy with Fog 51 10.6 50 10 96 96 VRB 6 9 30.12 1020 1 1 0.00 0.00
9:53 am 09:53 Cloudy with Heavy Rain 51 10.6 50 10 96 96 ENE 7 11 30.13 1020 1 1 0.08 2.03
9:55 am 09:55 Cloudy with Heavy Rain 51 10.6 50 10 96 96 ENE 8 13 30.12 1020 1 1 0.01 0.25
10:06 am 10:06 Cloudy with Light Rain 51 10.6 50 10 96 96 E 8 13 30.15 1021 1 2 0.02 0.51
10:20 am 10:20 Cloudy with Light Rain 51 10.6 51 10.6 100 100 E 6 9 30.15 1021 1 2 0.04 1.02
10:28 am 10:28 Cloudy with Light Rain 52 11.1 51 10.6 97 97 ENE 7 11 30.15 1021 1 2 0.04 1.02
10:53 am 10:53 Cloudy with Light Rain 52 11.1 51 10.6 97 97 E 6 9 30.13 1020 1 2 0.05 1.27
11:21 am 11:21 Cloudy with Mist and Fog 53 11.7 52 11.1 96 96 VRB 5 7 30.12 1020 3 4 0.00 0.03
11:53 am 11:53 Cloudy with Mist and Fog 53 11.7 52 11.1 96 96 ENE 7 11 30.10 1019 2 3 0.00 0.03
12:53 pm 12:53 Cloudy with Mist and Fog 54 12.2 54 12.2 100 100 E 5 7 30.07 1018 2 3 0.00 0.00
1:53 pm 13:53 Cloudy with Light Rain 56 13.3 55 12.8 97 97 Calm 30.03 1017 2 3 0.00 0.03
2:00 pm 14:00 Cloudy with Light Rain 56 13.3 55 12.8 97 97 E 5 7 30.03 1017 1 2 0.00 0.03
2:34 pm 14:34 Cloudy with Mist and Fog 57 13.9 55 12.8 93 93 VRB 5 7 30.00 1016 3 4 0.01 0.25
2:50 pm 14:50 Cloudy with Mist and Fog 55 13 55 13 100 100 E 7 11 30.00 1016 2 3 0.01 0.25
2:53 pm 14:53 Cloudy with Mist and Fog 56 13.3 55 12.8 97 97 VRB 5 7 30.01 1016 2 3 0.01 0.25
2:56 pm 14:56 Cloudy with Mist and Fog 57 13.9 55 12.8 93 93 Calm 30.00 1016 3 5 0.00 0.00
3:45 pm 15:45 Cloudy with Mist and Fog 57 13.9 56 13.3 96 96 E 5 7 30.00 1016 1 2 0.00 0.00
3:53 pm 15:53 Cloudy with Mist and Fog 57 13.9 56 13.3 96 96 Calm 30.00 1016 1 2 0.00 0.00
4:53 pm 16:53 Cloudy with Light Rain 57 13.9 56 13.3 96 96 Calm 29.99 1016 2 2 0.01 0.25
5:49 pm 17:49 Cloudy with Mist and Fog 57 14 55 13 94 94 E 3 6 30.00 1016 3 4 0.02 0.51
5:53 pm 17:53 Cloudy with Mist and Fog 57 13.9 56 13.3 96 96 Calm 29.99 1016 3 5 0.02 0.51
6:00 pm 18:00 Cloudy with Mist and Fog 57 13.9 56 13.3 96 96 Calm 30.00 1016 2 2 0.00 0.00
6:53 pm 18:53 Cloudy with Mist and Fog 56 13.3 56 13.3 100 100 E 5 7 29.98 1015 2 2 0.00 0.03
7:53 pm 19:53 Cloudy with Mist and Fog 56 13.3 55 12.8 97 97 Calm 29.96 1014 2 2 0.00 0.00
8:00 pm 20:00 Cloudy 56 13.3 55 12.8 97 97 VRB 3 6 29.94 1014 8 13 0.00 0.00
8:42 pm 20:42 Cloudy 56 13.3 55 12.8 97 97 Calm 29.94 1014 7 11 0.00 0.00
8:53 pm 20:53 Cloudy with Mist and Fog 56 13.3 55 12.8 97 97 Calm 29.94 1014 6 10 0.00 0.00
8:56 pm 20:56 Cloudy with Mist and Fog 56 13.3 55 12.8 97 97 Calm 29.94 1014 1 2 0.00 0.00
9:53 pm 21:53 Mostly Cloudy with Fog 56 13.3 56 13.3 100 100 Calm 29.93 1013 1 1 0.00 0.00
10:53 pm 22:53 Mostly Cloudy with Fog 56 13.3 56 13.3 100 100 Calm 29.92 1013 0 0 0.00 0.00
11:53 pm 23:53 Mostly Cloudy with Fog 56 13.3 56 13.3 100 100 Calm 29.90 1012 0 0 0.00 0.00

Powered by AerisWeather